Weather History for Santa Fe, NM

Change the Weather History Date:

Thursday, April 10, 2014

  Actual Average Record
Temperature  
Mean Temperature 57 °F -  
Max Temperature 77 °F 0 °F 78 °F (2012)
Min Temperature 39 °F - 21 °F (1999)
Degree Days  
Heating Degree Days 8    
Growing Degree Days 7 (Base 50)    
Moisture  
Dew Point 4 °F    
Average Humidity 13    
Maximum Humidity 28    
Minimum Humidity 5    
Precipitation  
Precipitation 0.00 in - - ()
Sea Level Pressure  
Sea Level Pressure 29.87 in    
Wind  
Wind Speed 7 mph (WNW)    
Max Wind Speed 23 mph    
Max Gust Speed 30 mph    
Visibility 10 miles    
Events      
Averages and records for this station are not official NWS values.
T = Trace of Precipitation, MM = Missing Value Source: NWS Daily Summary

Daily Weather History Graph

Daily Weather History Graph

Search for Another Location

Airport:

Trip Planner

Search our weather history database for the weather conditions in past years. The results will help you decide how hot, cold, wet, or windy it might be!

Date:

Astronomy

Apr. 10, 2014 Rise Set
Actual Time 6:38 AM MDT 7:33 PM MDT
Civil Twilight 6:12 AM MDT 7:59 PM MDT
Nautical Twilight 5:41 AM MDT 8:30 PM MDT
Astronomical Twilight 5:09 AM MDT 9:02 PM MDT
Moon 3:28 PM MDT (4/10) 3:53 AM MDT (4/10)
Length of Visible Light 13h 47m
Length of Day
12h 55m
Waxing Gibbous, 80% of the Moon is Illuminated
Apr 10
Waxing Gibbous
Apr 15
Full
Apr 22
Last Quarter
Apr 29
New
May 6
First Quarter

Hourly Weather History & Observations

Time (MDT) Temp. Windchill Dew Point Humidity Pressure Visibility Wind Dir Wind Speed Gust Speed Precip Events Conditions
12:53 AM 46.9 °F - 10.0 °F 22% 29.89 in 10.0 mi Calm Calm - N/A   Clear
1:53 AM 50.0 °F - 9.0 °F 19% 29.86 in 10.0 mi North 5.8 mph - N/A   Clear
2:53 AM 48.9 °F - 9.0 °F 20% 29.84 in 10.0 mi West 3.5 mph - N/A   Clear
3:53 AM 45.0 °F - 8.1 °F 22% 29.86 in 10.0 mi Calm Calm - N/A   Clear
4:53 AM 43.0 °F 40.3 °F 9.0 °F 25% 29.87 in 10.0 mi NW 4.6 mph - N/A   Clear
5:53 AM 41.0 °F 39.0 °F 10.0 °F 28% 29.89 in 10.0 mi North 3.5 mph - N/A   Clear
6:53 AM 39.9 °F - 8.1 °F 27% 29.94 in 10.0 mi Calm Calm - N/A   Clear
8:53 AM 55.0 °F - 12.0 °F 18% 29.94 in 10.0 mi SW 5.8 mph - N/A   Clear
9:53 AM 66.0 °F - -0.9 °F 7% 29.91 in 10.0 mi WSW 11.5 mph - N/A   Clear
10:53 AM 66.9 °F - 3.0 °F 8% 29.91 in 10.0 mi West 16.1 mph - N/A   Clear
11:53 AM 69.1 °F - 1.0 °F 7% 29.92 in 10.0 mi West 11.5 mph 17.3 mph N/A   Clear
12:53 PM 71.1 °F - 1.9 °F 7% 29.89 in 9.0 mi West 8.1 mph 18.4 mph N/A   Clear
1:53 PM 73.9 °F - 1.9 °F 6% 29.84 in 10.0 mi NW 12.7 mph 17.3 mph N/A   Clear
2:53 PM 75.9 °F - 1.9 °F 6% 29.81 in 10.0 mi West 18.4 mph 27.6 mph N/A   Clear
3:53 PM 75.9 °F - 3.0 °F 6% 29.79 in 10.0 mi WSW 23.0 mph 28.8 mph N/A   Clear
4:53 PM 75.0 °F - 1.0 °F 6% 29.81 in 10.0 mi West 17.3 mph 29.9 mph N/A   Clear
5:53 PM 73.0 °F - -2.9 °F 5% 29.82 in 10.0 mi WNW 15.0 mph - N/A   Clear
6:53 PM 71.1 °F - -2.9 °F 5% 29.84 in 10.0 mi West 18.4 mph 28.8 mph N/A   Clear
7:53 PM 64.0 °F - -2.0 °F 7% 29.85 in 10.0 mi WNW 8.1 mph - N/A   Clear
8:53 PM 55.9 °F - 1.9 °F 11% 29.88 in 10.0 mi NNW 6.9 mph - N/A   Clear
9:53 PM 55.0 °F - 3.0 °F 12% 29.87 in 10.0 mi NNE 9.2 mph - N/A   Clear
10:53 PM 48.0 °F - 3.9 °F 16% 29.89 in 10.0 mi North 6.9 mph - N/A   Clear
11:53 PM 51.1 °F - 3.0 °F 14% 29.88 in 10.0 mi WNW 5.8 mph - N/A   Clear